Location: Dulzura
(32.6442°N, 116.7814°W)
Time: 14:48:44
(UTC+00:00)

NOAA 11 - Pass Details

Date: 07 December 2021
Orbit: 834 x 848 km, 98.4° (Epoch: 19 January)

Event Time Altitude Azimuth Distance (km) Brightness Sun altitude
Rises 13:35:02 0° 8° (N) 3,406 7.2 -12.7°
Reaches altitude 10° 13:37:25 10° 6° (N) 2,470 6.5 -12.3°
Maximum altitude 13:42:50 65° 285° (WNW) 926 4.2 -11.2°
Drops below altitude 10° 13:48:15 10° 205° (SSW) 2,463 6.6 -10.1°
Sets 13:50:37 0° 202° (SSW) 3,395 7.3 -9.6°
